Weather Roundup
Issued by NWS Springfield, MO

Home | Current Version | Previous Version | Text Only | Print | Product List | Glossary Off
Versions: 1 2 3 4 5 6 7 8 9 10 11 12 13 14 15 16 17 18 19 20 21 22 23 24 25 26 27 28 29 30 31 32 33 34 35 36 37 38 39 40 41 42 43 44 45 46 47 48 49 50

000
NZUS99 KSGF 020507
HRRSGF

HOURLY WEATHER
NATIONAL WEATHER SERVICE SPRINGFIELD MO
1100 PM CST SUN MAR 01 2015

......SGF CWA......

CITY           SKY/WX    TMP DP  RH WIND       PRES   REMARKS
SPRINGFIELD    PTCLDY    26  21  81 N6        30.46R WCI  19
JOPLIN         PTCLDY    24  20  84 NE5       30.49R WCI  18
WEST PLAINS    CLOUDY    30  22  72 N8        30.44R WCI  22
ROLLA          FAIR      13  11  92 NW3       30.44S FOG
OSAGE BEACH    PTCLDY    19  18  93 CALM      30.48R

......SURROUNDING SGF CWA......

CITY           SKY/WX    TMP DP  RH WIND       PRES   REMARKS
CHANUTE        PTCLDY    19  17  92 CALM      30.49R
PARSONS        PTCLDY    23  19  85 NE3       30.50R
COFFEYVILLE    PTCLDY    25  20  81 N3        30.50R
EMPORIA        PTCLDY    20  17  88 S5        30.46S WCI  13
GROVE OK       MOCLDY    30  27  86 CALM      30.50R
ROGERS AR      CLOUDY    28  26  92 NE7       30.45R WCI  21
SILOAM SPRINGS CLOUDY    28  21  74 CALM      30.46R
HARRISON AR    CLOUDY    30  28  92 N8        30.43R WCI  22
NEAR YELLVILLE CLOUDY    34  27  75 N7        30.45R WCI  28

......KANSAS AND MISSOURI......

CITY           SKY/WX    TMP DP  RH WIND       PRES   REMARKS
KANSAS CTY INT PTCLDY    26  19  74 SW3       30.48R
DOWNTOWN KC    PTCLDY    26  22  84 CALM      30.49R
COLUMBIA       PTCLDY    21  18  88 NW5       30.48R WCI  15
SEDALIA        PTCLDY    25  18  74 W5        30.50R WCI  19
ST JOSEPH      MOCLDY    26  22  84 S3        30.49R
ST LOUIS       PTCLDY    24  19  81 CALM      30.49R
SPIRIT OF STL  PTCLDY    18  14  84 CALM      30.49R FOG
KIRKSVILLE     CLOUDY    22  19  89 CALM      30.46F
WICHITA        PTCLDY    18  15  88 SW3       30.47R
TOPEKA         CLEAR     24  19  81 CALM      30.49R
OLATHE         PTCLDY    23  20  88 CALM      30.47R

......TENNESSEE......

CITY           SKY/WX    TMP DP  RH WIND       PRES   REMARKS
MEMPHIS        CLOUDY    38  35  89 NE10      30.39S WCI  31
NASHVILLE      LGT RAIN  41  41 100 N7        30.36R FOG

......ARKANSAS.......

CITY           SKY/WX    TMP DP  RH WIND       PRES   REMARKS
FAYETTEVILLE   CLOUDY    31  30  96 NE5       30.43R FOG     WCI  26
FT SMITH       CLOUDY    36  32  85 W7        30.44R WCI  30
LITTLE ROCK    CLOUDY    40  36  86 N7        30.42S

......OKLAHOMA.......

CITY           SKY/WX    TMP DP  RH WIND       PRES   REMARKS
TULSA          CLOUDY    31  25  78 N7        30.49R WCI  24
PONCA CITY     CLEAR     22  19  89 CALM      30.49R FOG
MCALESTER      CLOUDY    33  29  85 N9        30.45S WCI  25
OKLAHOMA CITY  CLOUDY    29  22  75 N6        30.46R WCI  23

......IOWA............

CITY           SKY/WX    TMP DP  RH WIND       PRES   REMARKS
DES MOINES     PTCLDY    23  14  68 CALM      30.45R
QUAD CITIES    MOCLDY    14   5  67 CALM      30.43R

......ILLINOIS........

CITY           SKY/WX    TMP DP  RH WIND       PRES   REMARKS
QUINCY         CLOUDY    23  17  78 W5        30.47R WCI  17
CHICAGO        CLEAR     19  10  68 W13       30.34R WCI   6



USA.gov is the U.S. government's official web portal to all federal, state and local government web resources and services.